Flag for Canada Weather past 2 weeks in Labrador City, Newfoundland and Labrador, Canada

Now
36 °F

Clear.


Feels Like: 32 °F
Forecast: 36 / 55 °F
Wind: 5 mph from South

Location: Wabush Lake

Current Time: Sep 1, 2015 at 5:19:40 AM

Latest Report: Sep 1, 2015 at 4:00 AM


Visibility: 15 mi

Pressure: 30.07 "Hg (28.06 "Hg at 558m altitude)

Humidity: 93%

Dew point: 34 °F

Location of Labrador CityLocation

Historic Weather in Labrador City — Graph

°F

Labrador City temperature yesterday

Maximum temperature yesterday: 55 °F (at 12:00 AM)
Minimum temperature yesterday: 46 °F (at 9:00 PM)
Average temperature yesterday: 51 °F

Past Weeks' High & Low Weather Summary

 TemperatureHumidityPressure
High81 °F (Aug 17, 4:00 PM)100% (Aug 19, 6:00 AM)30.19 "Hg (Aug 19, 6:00 AM)
Low36 °F (Sep 1, 4:00 AM)33% (Aug 19, 5:00 PM)29.56 "Hg (Aug 17, 4:00 PM)
Average60 °F77%29.94 "Hg
* Reported Aug 17 4:00 AM — Sep 1 4:00 AM, Labrador City, Weather by CustomWeather, © 2015

Note: Actual official high and low records may vary slightly from our data, if they occured in-between our weather recording intervals... More about our weather records

Advertising

Labrador City weather history for previous 24 hours

 ConditionsComfort  
Time TempWeatherWind HumidityBarometerVisibility
4:00 AM
Tue, Sep 1
36 °FClear.5 mph93%30.07 "Hg15 mi
3:00 AM37 °FClear.3 mph100%30.05 "Hg15 mi
2:00 AM37 °FClear.5 mph93%30.02 "Hg15 mi
1:00 AM41 °FClear.6 mph87%30.02 "Hg15 mi
12:00 AM46 °FPassing clouds.7 mph76%30.01 "Hg15 mi
11:00 PM
Mon, Aug 31
46 °FPassing clouds.8 mph71%30.01 "Hg15 mi
10:00 PM46 °FOvercast.14 mph76%30.00 "Hg15 mi
9:00 PM46 °FMostly cloudy.14 mph82%29.98 "Hg15 mi
8:00 PM48 °FMostly cloudy.9 mph82%29.94 "Hg15 mi
7:00 PM48 °FLight rain. Mostly cloudy.15 mph87%29.90 "Hg15 mi
6:00 PM48 °FLight rain. Overcast.14 mph87%29.85 "Hg15 mi
5:00 PM50 °FLight rain. More clouds than sun.20 mph88%29.82 "Hg12 mi
4:00 PM48 °FLight rain. Overcast.15 mph94%29.78 "Hg15 mi
3:00 PM50 °FLight rain. Overcast.15 mph94%29.74 "Hg10 mi
2:00 PM52 °FLight rain. Mostly cloudy.16 mph94%29.70 "Hg8 mi
1:00 PM52 °FLight rain. Fog.18 mph94%29.65 "Hg6 mi
12:00 PM52 °FRain. Fog.16 mph94%29.62 "Hg5 mi
11:00 AM54 °FLight rain. Fog.14 mph94%29.59 "Hg6 mi
10:00 AM54 °FLight rain. Fog.12 mph94%29.57 "Hg6 mi
9:00 AM54 °FLight rain. Fog.8 mph94%29.57 "Hg6 mi
8:00 AM54 °FLight rain. Low clouds.7 mph100%29.57 "Hg8 mi
7:00 AM54 °FLight rain. Fog.5 mph94%29.59 "Hg3 mi
6:00 AM54 °FLight rain. Fog.2 mph100%29.60 "Hg6 mi
5:00 AM54 °FCool.3 mph100%29.61 "Hg3 mi
Weather by CustomWeather, © 2015

See weather overviewHow to use our weather pages